File timestamp: Thu Aug 11 01:00:00 2016, Internal temp: 35.6292724609375
1470877201, -0.00229538767598569, 0.0298077426850796, 0.0195131544023752, 32860, 33169, 23412, 115.512222290039
1470877202, -0.00177911156788468, 0.0286488141864538, 0.0194783359766006, 32867, 33170, 23409, NaN
1470877203, -0.000580523395910859, 0.0292914770543575, 0.0195606425404549, 32857, 33173, 23413, NaN
1470877204, 0.00115237454883754, 0.0290535651147366, 0.0197864715009928, 32846, 33171, 23411, NaN
1470877205.01, 0.00384806073270738, 0.0298646669834852, 0.02005909755826, 32851, 33166, 23415, NaN
1470877206.01, 0.0061036660335958, 0.0303425304591656, 0.0191244520246983, 32866, 33179, 23403, NaN
1470877207.01, 0.00843711104243994, 0.0306515917181969, 0.0196391325443983, 32850, 33173, 23416, NaN
1470877208.01, 0.00980040337890387, 0.0310592912137508, 0.0196722485125065, 32858, 33168, 23423, NaN
1470877209.01, 0.00889365188777447, 0.0296410173177719, 0.0196980629116297, 32854, 33173, 23409, NaN
1470877210.01, 0.00753767788410187, 0.0305184368044138, 0.0188362542539835, 32857, 33167, 23406, NaN
1470877211.01, 0.00665650982409716, 0.0305751357227564, 0.0184896290302277, 32854, 33169, 23424, NaN
1470877212.01, 0.0042767790146172, 0.031312245875597, 0.0186314973980188, 32853, 33165, 23415, NaN
1470877213.01, 0.00185188616160303, 0.0322240218520164, 0.0189993567764759, 32862, 33174, 23414, NaN
1470877214.01, -0.0010353890247643, 0.0322662591934204, 0.0185680836439133, 32861, 33162, 23417, NaN
1470877215.01, -0.00354210683144629, 0.0325064696371555, 0.0184616707265377, 32848, 33168, 23418, NaN
1470877216.01, -0.00614276481792331, 0.0325323492288589, 0.0188504531979561, 32866, 33170, 23414, NaN
1470877217.02, -0.00943586137145758, 0.032955277711153, 0.0191823523491621, 32857, 33172, 23428, NaN
1470877218.02, -0.0125109581276774, 0.0330904461443424, 0.0193933714181185, 32856, 33162, 23411, NaN
1470877218.02, -0.0154756838455796, 0.0337511673569679, 0.0199193246662617, 32856, 33152, 23429, NaN
1470877219.028, -0.0185806360095739, 0.0338426418602467, 0.0200950223952532, 32858, 33173, 23404, NaN
1470877220.028, -0.0214353501796722, 0.0341118723154068, 0.0210457779467106, 32849, 33172, 23421, NaN
1470877221.028, -0.0237862914800644, 0.0335312336683273, 0.021361455321312, 32856, 33164, 23420, NaN
1470877222.028, -0.0247233230620623, 0.0333565808832645, 0.021776432171464, 32865, 33169, 23411, NaN
1470877223.028, -0.0234311260282993, 0.0327367335557938, 0.0221517365425825, 32856, 33171, 23406, NaN
1470877224.028, -0.0212248079478741, 0.032922051846981, 0.0217940825968981, 32867, 33166, 23417, NaN
1470877225.028, -0.0170758869498968, 0.0335093028843403, 0.0220767576247454, 32861, 33167, 23415, NaN
1470877226.028, -0.012648600153625, 0.0332945510745049, 0.0215775668621063, 32857, 33164, 23408, NaN
1470877227.028, -0.00817293673753738, 0.0332901440560818, 0.0218080766499043, 32854, 33170, 23422, NaN
1470877227.028, -0.00322010228410363, 0.0336863175034523, 0.0223955642431974, 32851, 33172, 23416, NaN
1470877227.398, -0.0013988217106089, 0.0339296087622643, 0.0223797522485256, 32853, 33172, 23403, NaN
1470877228.398, 0.00289475219324231, 0.0334630124270916, 0.0218649804592133, 32867, 33166, 23414, NaN
1470877229.398, 0.00562257692217827, 0.0321451015770435, 0.0215466786175966, 32856, 33165, 23406, NaN
1470877230.398, 0.00789993070065975, 0.032121516764164, 0.0217290464788675, 32864, 33171, 23414, NaN
1470877230.398, 0.0103843482211232, 0.0323320515453815, 0.0217524338513613, 32861, 33169, 23413, NaN
1470877231.402, 0.0131109170615673, 0.0316963344812393, 0.0214671194553375, 32847, 33175, 23415, NaN
1470877232.402, 0.0151713164523244, 0.0314485505223274, 0.0218574218451977, 32856, 33167, 23409, NaN
1470877233.402, 0.0176809150725603, 0.0311597380787134, 0.0218042861670256, 32853, 33170, 23427, NaN
1470877234.402, 0.0193211641162634, 0.0314744673669338, 0.0221432093530893, 32861, 33162, 23414, NaN
1470877235.402, 0.0197519361972809, 0.0315411128103733, 0.0220028329640627, 32853, 33156, 23410, NaN
1470877236.402, 0.0203461796045303, 0.0315621308982372, 0.0217472035437822, 32862, 33165, 23408, NaN
1470877237.41, 0.0206735264509916, 0.0319613218307495, 0.0225359443575144, 32872, 33165, 23402, NaN
1470877238.41, 0.0197452027350664, 0.0323697105050087, 0.0218019690364599, 32866, 33170, 23410, NaN
1470877239.41, 0.0193024575710297, 0.0323327220976353, 0.0219906773418188, 32871, 33172, 23413, NaN
1470877239.41, 0.0189185813069344, 0.0313594453036785, 0.0217328481376171, 32853, 33172, 23426, NaN
1470877240.416, 0.0168665144592524, 0.0317741855978966, 0.0218458119779825, 32863, 33166, 23420, NaN
1470877241.416, 0.013601622544229, 0.032948512583971, 0.0212166663259268, 32865, 33164, 23417, NaN
1470877242.416, 0.0116687752306461, 0.0323950126767159, 0.0214134566485882, 32859, 33166, 23418, NaN
1470877243.416, 0.0100764632225037, 0.0330559760332108, 0.0219403170049191, 32863, 33162, 23431, NaN
1470877243.416, 0.00734964339062572, 0.0332792736589909, 0.0222493167966604, 32860, 33161, 23405, NaN
1470877244.418, 0.00420160731300712, 0.0333276204764843, 0.0228443332016468, 32846, 33170, 23423, NaN
1470877245.418, 0.000934454204980284, 0.0330035835504532, 0.0230851527303457, 32854, 33159, 23412, NaN
1470877246.418, -0.00140271964482963, 0.0334329605102539, 0.0239606499671936, 32845, 33169, 23418, NaN
1470877246.418, -0.00406199134886265, 0.0335788577795029, 0.0240557119250298, 32853, 33172, 23413, NaN
1470877247.426, -0.00752156414091587, 0.0333010740578175, 0.0236934125423431, 32853, 33180, 23415, NaN
1470877248.426, -0.0111339576542377, 0.0332281440496445, 0.0236527305096388, 32857, 33170, 23428, NaN
1470877249.426, -0.0151096703484654, 0.0335404574871063, 0.023876003921032, 32861, 33168, 23406, NaN
1470877250.426, -0.0182669572532177, 0.0335622653365135, 0.0237487070262432, 32854, 33170, 23423, NaN
1470877251.426, -0.0212322752922773, 0.0337877981364727, 0.0242838654667139, 32865, 33168, 23413, NaN
1470877252.426, -0.0234235879033804, 0.0335922986268997, 0.0237313136458397, 32858, 33180, 23415, NaN
1470877253.426, -0.0258892849087715, 0.0339110493659973, 0.0235221013426781, 32859, 33166, 23416, NaN
1470877254.426, -0.0274309627711773, 0.0341260172426701, 0.0235790889710188, 32859, 33163, 23417, NaN
1470877255.426, -0.027107710018754, 0.0340062081813812, 0.0233471728861332, 32854, 33173, 23411, 113.406921386719
1470877256.426, -0.0259965434670448, 0.0351404957473278, 0.0226741135120392, 32865, 33168, 23417, NaN
1470877257.426, -0.0242528654634953, 0.034814290702343, 0.0230239033699036, 32864, 33170, 23413, NaN
1470877258.434, -0.022351760417223, 0.0355221778154373, 0.0221978612244129, 32853, 33169, 23411, NaN
1470877259.434, -0.0196109414100647, 0.0359466224908829, 0.0222047083079815, 32851, 33170, 23411, NaN
1470877260.434, -0.0160004254430532, 0.0355545468628407, 0.0222801174968481, 32851, 33169, 23418, NaN
1470877261.434, -0.0120213655754924, 0.0357109159231186, 0.0229100808501244, 32857, 33168, 23414, NaN
1470877262.434, -0.00678693596273661, 0.0357385091483593, 0.0227022189646959, 32851, 33172, 23418, NaN
1470877263.434, -0.00193970056716353, 0.0357766598463058, 0.0223828461021185, 32859, 33164, 23411, NaN
1470877264.434, 0.00173628202173859, 0.0362327434122562, 0.0225011669099331, 32863, 33171, 23431, NaN
1470877265.434, 0.00607350934296846, 0.0367740243673325, 0.0226971339434385, 32849, 33164, 23410, NaN
1470877266.434, 0.0110861994326115, 0.0378712043166161, 0.0224076267331839, 32852, 33157, 23436, NaN
1470877267.434, 0.0140715604647994, 0.0377976037561893, 0.0218094047158957, 32844, 33169, 23413, NaN
1470877268.434, 0.0163807738572359, 0.03841882199049, 0.021832749247551, 32853, 33172, 23408, NaN
1470877269.434, 0.0177653022110462, 0.0397673659026623, 0.0213772170245647, 32865, 33169, 23417, NaN
1470877270.442, 0.0177238509058952, 0.0393670275807381, 0.021125765517354, 32867, 33167, 23410, NaN
1470877270.442, 0.0166477952152491, 0.0393626689910889, 0.0216209571808577, 32858, 33176, 23417, NaN
1470877271.45, 0.0157211907207966, 0.0400720909237862, 0.0214272625744343, 32857, 33176, 23424, NaN
1470877272.45, 0.0186857786029577, 0.0402186065912247, 0.021903283894062, 32859, 33173, 23413, NaN
1470877273.45, 0.0301428399980068, 0.0392112024128437, 0.0216812510043383, 32858, 33170, 23416, NaN
1470877274.45, 0.0525837242603302, 0.0396752655506134, 0.0221725404262543, 32862, 33175, 23397, NaN
1470877275.45, 0.0757060497999191, 0.0403970554471016, 0.0221503470093012, 32866, 33160, 23404, NaN
1470877276.45, 0.0560276284813881, 0.0411328449845314, 0.0226872898638248, 32854, 33172, 23421, NaN
1470877277.45, 0.0388775877654552, 0.0402801856398582, 0.0218381732702255, 32844, 33175, 23418, NaN
1470877278.45, 0.0240893047302961, 0.040002066642046, 0.0218128208070993, 32859, 33166, 23430, NaN
1470877279.45, 0.0114952651783824, 0.0403593443334103, 0.0211113896220922, 32858, 33163, 23423, NaN
1470877280.45, 0.000927946181036532, 0.0397953912615776, 0.0217546597123146, 32856, 33171, 23415, NaN
1470877281.458, -0.0077792052179575, 0.0398313850164413, 0.0208371710032225, 32854, 33158, 23412, NaN
1470877282.458, -0.0147907417267561, 0.0404726751148701, 0.0211898367851973, 32850, 33173, 23409, NaN
1470877283.458, -0.0202681832015514, 0.0397967509925365, 0.021626329049468, 32846, 33172, 23416, NaN
1470877284.458, -0.0243690125644207, 0.0393325723707676, 0.0217287372797728, 32858, 33172, 23411, NaN
1470877284.458, -0.0272457264363766, 0.0393386110663414, 0.0213470254093409, 32860, 33173, 23424, NaN
1470877285.464, -0.0290449671447277, 0.0390095673501492, 0.0219779442995787, 32850, 33176, 23421, NaN
1470877286.464, -0.0299067478626966, 0.0386453866958618, 0.0224544145166874, 32847, 33175, 23415, NaN
1470877287.464, -0.029963780194521, 0.038267370313406, 0.023757878690958, 32864, 33159, 23407, NaN
1470877288.464, -0.0293409284204245, 0.0379707515239716, 0.024254459887743, 32851, 33164, 23417, NaN
1470877289.464, -0.0281547624617815, 0.0376351810991764, 0.0241889972239733, 32857, 33170, 23422, NaN
1470877290.464, -0.0265132375061512, 0.0384440273046494, 0.0239682421088219, 32856, 33166, 23419, NaN
1470877291.474, -0.0245154965668917, 0.0382539257407188, 0.0242368429899216, 32849, 33169, 23423, NaN
1470877292.474, -0.0222517680376768, 0.0383841507136822, 0.0237420927733183, 32851, 33165, 23420, NaN
1470877293.474, -0.0198033712804317, 0.038360983133316, 0.0239036995917559, 32855, 33158, 23416, NaN
1470877293.474, -0.0172428339719772, 0.0379288792610168, 0.0247053783386946, 32857, 33174, 23428, NaN
1470877294.48, -0.0146340737119317, 0.0390109270811081, 0.0253235157579184, 32859, 33168, 23416, NaN
1470877295.48, -0.0120326699689031, 0.0401384979486465, 0.0258290860801935, 32851, 33155, 23416, NaN
1470877296.48, -0.00948620680719614, 0.0401700735092163, 0.0255199261009693, 32867, 33160, 23409, NaN
1470877297.48, -0.0070346649736166, 0.0403184592723846, 0.0266766771674156, 32847, 33169, 23425, NaN
1470877297.48, -0.00471086613833904, 0.0405759513378143, 0.0265483353286982, 32858, 33175, 23411, NaN
1470877298.482, -0.00254095415584743, 0.0401980802416801, 0.0258508082479239, 32865, 33176, 23409, NaN
1470877299.482, -0.000544903392437845, 0.0401226319372654, 0.0246051214635372, 32858, 33165, 23426, NaN
1470877300.482, 0.00311880535446107, 0.0401518829166889, 0.0246465094387531, 32861, 33166, 23411, NaN
1470877301.492, 0.0125145111232996, 0.0397514067590237, 0.0246116667985916, 32859, 33162, 23410, NaN
1470877301.492, 0.0263185035437346, 0.0405377559363842, 0.026038397103548, 32847, 33165, 23427, NaN
1470877302.5, 0.0431321486830711, 0.0401459075510502, 0.0263684447854757, 32861, 33172, 23420, NaN
1470877303.5, 0.0617569014430046, 0.0412976928055286, 0.0271672438830137, 32868, 33180, 23415, NaN
1470877304.5, 0.0811790525913239, 0.0412583239376545, 0.0276790261268616, 32864, 33162, 23404, NaN
1470877305.48, 0.100554637610912, 0.0411711744964123, 0.0277887713164091, 32868, 33165, 23420, NaN
1470877306.48, 0.119194611907005, 0.0415900200605392, 0.0279854536056519, 32852, 33172, 23421, NaN
1470877307.48, 0.135502934455872, 0.0415825992822647, 0.0281565617769957, 32862, 33164, 23422, NaN
1470877308.48, 0.145396023988724, 0.0415557511150837, 0.0283565875142813, 32850, 33180, 23424, NaN
1470877309.48, 0.151039257645607, 0.0423103608191013, 0.0278182551264763, 32855, 33166, 23416, NaN
1470877310.48, 0.152802050113678, 0.0418391264975071, 0.0275084096938372, 32853, 33160, 23413, 111.40355682373
1470877311.48, 0.152217671275139, 0.0426729619503021, 0.0270210951566696, 32857, 33160, 23413, NaN
1470877312.49, 0.150062590837479, 0.0423263721168041, 0.0272636916488409, 32861, 33159, 23428, NaN
1470877313.49, 0.147117242217064, 0.0426697544753551, 0.026691697537899, 32857, 33166, 23419, NaN
1470877314.49, 0.143901914358139, 0.0426640100777149, 0.027079289779067, 32865, 33173, 23422, NaN
1470877315.49, 0.140981823205948, 0.0427613109350204, 0.0256892442703247, 32849, 33173, 23409, NaN
1470877316.49, 0.138296127319336, 0.0429317019879818, 0.0254472456872463, 32860, 33167, 23418, NaN
1470877317.49, 0.135934725403786, 0.0431074202060699, 0.0263267252594233, 32868, 33171, 23415, NaN
1470877318.49, 0.134282067418098, 0.0433131866157055, 0.0261926297098398, 32859, 33173, 23405, NaN
1470877319.49, 0.133100911974907, 0.0438561215996742, 0.0265611540526152, 32853, 33172, 23419, NaN
1470877320.49, 0.132198050618172, 0.0434474535286427, 0.0262083541601896, 32857, 33168, 23403, NaN
1470877321.49, 0.132177889347076, 0.043891116976738, 0.0261599160730839, 32850, 33172, 23414, NaN
1470877322.49, 0.132028624415398, 0.0433842688798904, 0.025637885555625, 32860, 33163, 23411, NaN
1470877323.49, 0.1312016248703, 0.042156383395195, 0.0257144160568714, 32853, 33168, 23418, NaN
1470877324.5, 0.130901485681534, 0.0423571057617664, 0.0259508341550827, 32851, 33160, 23433, NaN
1470877324.5, 0.130781903862953, 0.0417620353400707, 0.0269272308796644, 32858, 33168, 23424, NaN
1470877325.508, 0.128942742943764, 0.0419739559292793, 0.0269015952944756, 32856, 33165, 23412, NaN
1470877326.508, 0.126983061432838, 0.0414011105895042, 0.0262373574078083, 32850, 33168, 23419, NaN
1470877327.508, 0.124517500400543, 0.0419094115495682, 0.025798425078392, 32862, 33173, 23415, NaN
1470877328.508, 0.122527368366718, 0.0420356392860413, 0.0261431578546762, 32859, 33169, 23420, NaN
1470877329.508, 0.120246089994907, 0.0413915328681469, 0.0261085778474808, 32859, 33168, 23420, NaN
1470877330.508, 0.117090530693531, 0.0414173528552055, 0.0251708216965199, 32862, 33168, 23419, NaN
1470877331.508, 0.112579427659512, 0.0413508787751198, 0.0253383480012417, 32852, 33166, 23412, NaN
1470877332.508, 0.107057608664036, 0.0411414355039597, 0.0263578221201897, 32854, 33173, 23422, NaN
1470877333.508, 0.1001862809062, 0.0416015610098839, 0.0264562554657459, 32863, 33164, 23419, NaN
1470877334.508, 0.0925717353820801, 0.0420991778373718, 0.0262116920202971, 32853, 33169, 23412, NaN
1470877335.516, 0.0829475149512291, 0.041678924113512, 0.024879802018404, 32869, 33170, 23407, NaN
1470877336.516, 0.0729521885514259, 0.0415659695863724, 0.0245132222771645, 32868, 33159, 23413, NaN
1470877337.516, 0.0627207234501839, 0.0426713190972805, 0.02448670566082, 32870, 33170, 23414, NaN
1470877338.516, 0.0524148195981979, 0.0430774763226509, 0.0242148842662573, 32867, 33182, 23412, NaN
1470877338.516, 0.0428293943405151, 0.0432975590229034, 0.0242371261119843, 32857, 33163, 23427, NaN
1470877339.52, 0.0337736085057259, 0.043107595294714, 0.0243113003671169, 32840, 33159, 23426, NaN
1470877340.52, 0.0253408793359995, 0.0436638556420803, 0.0235663093626499, 32848, 33170, 23421, NaN
1470877341.52, 0.0174498576670885, 0.0432743690907955, 0.0239154789596796, 32844, 33160, 23415, NaN
1470877342.52, 0.0102346846833825, 0.0444326400756836, 0.0234669260680676, 32870, 33159, 23403, NaN
1470877343.52, 0.00289914919994771, 0.0450185760855675, 0.0231200028210878, 32850, 33174, 23415, NaN
1470877344.52, -0.00440912088379264, 0.0450130626559258, 0.023634372279048, 32860, 33162, 23417, NaN
1470877345.528, -0.0111771794036031, 0.0455490574240685, 0.0244437530636787, 32841, 33177, 23417, NaN
1470877346.528, -0.0170189365744591, 0.0453918464481831, 0.0240312628448009, 32876, 33160, 23402, NaN
1470877347.528, -0.0225046444684267, 0.0456128865480423, 0.0246290992945433, 32859, 33176, 23423, NaN
1470877347.528, -0.0276584085077047, 0.045630618929863, 0.0247624814510345, 32855, 33179, 23421, NaN
1470877348.534, -0.0321241617202759, 0.0459853671491146, 0.0240004491060972, 32869, 33171, 23422, NaN
1470877349.534, -0.0358974896371365, 0.0451721027493477, 0.0247523616999388, 32870, 33157, 23404, NaN
1470877350.534, -0.0391478128731251, 0.0450554490089417, 0.0249670632183552, 32855, 33175, 23423, NaN
1470877351.534, -0.0417797416448593, 0.0451553128659725, 0.0242761038243771, 32858, 33166, 23413, NaN
1470877351.534, -0.0438066050410271, 0.0458144806325436, 0.0241351667791605, 32845, 33171, 23435, NaN
1470877352.536, -0.0452855490148067, 0.0454454869031906, 0.0236075520515442, 32858, 33161, 23420, NaN
1470877353.536, -0.046167328953743, 0.0456012822687626, 0.0222713816910982, 32862, 33176, 23414, NaN
1470877354.536, -0.0458942092955112, 0.0456396006047726, 0.0216854717582464, 32865, 33170, 23404, NaN
1470877355.544, -0.044538140296936, 0.0450247190892696, 0.0215477496385574, 32860, 33168, 23409, NaN
1470877355.544, -0.0429790169000626, 0.0451531745493412, 0.0222518276423216, 32855, 33167, 23430, NaN
1470877356.552, -0.0413534082472324, 0.0441207140684128, 0.0219161473214626, 32861, 33168, 23408, NaN
1470877357.552, -0.0405216068029404, 0.0441932417452335, 0.0234942752867937, 32853, 33157, 23408, NaN
1470877358.552, -0.0397764407098293, 0.0442613922059536, 0.023773392662406, 32853, 33171, 23426, NaN
1470877359.552, -0.0379008166491985, 0.0441520884633064, 0.0235895588994026, 32866, 33167, 23413, NaN
1470877360.552, -0.0354197435081005, 0.0434327721595764, 0.0241545755416155, 32854, 33170, 23422, NaN
1470877361.552, -0.0326447337865829, 0.0426816120743752, 0.0240673087537289, 32864, 33174, 23401, NaN
1470877362.552, -0.0296505149453878, 0.0425036549568176, 0.0237613543868065, 32847, 33168, 23413, NaN
1470877363.552, -0.0267014317214489, 0.0417300425469875, 0.0234810505062342, 32852, 33169, 23433, NaN
1470877364.552, -0.0242880191653967, 0.0414951890707016, 0.0241328440606594, 32855, 33167, 23416, NaN
1470877365.552, -0.0213825050741434, 0.0407541878521442, 0.0234601683914661, 32853, 33167, 23414, 112.31388092041
1470877366.56, -0.0180314779281616, 0.040076732635498, 0.0232760291546583, 32848, 33165, 23420, NaN
1470877367.56, -0.0143868196755648, 0.0395337976515293, 0.0238519050180912, 32856, 33173, 23420, NaN
1470877368.56, -0.0109188668429852, 0.0385260544717312, 0.0244631879031658, 32846, 33177, 23432, NaN
1470877369.56, -0.00903774052858353, 0.038954246789217, 0.0245906710624695, 32857, 33160, 23412, NaN
1470877370.56, -0.00711769517511129, 0.0387989766895771, 0.024339659139514, 32854, 33175, 23404, NaN
1470877371.56, -0.00487114954739809, 0.0379433110356331, 0.0243839882314205, 32841, 33163, 23416, NaN
1470877372.56, -0.0030697314068675, 0.0365548171103001, 0.0242847166955471, 32859, 33165, 23418, NaN
1470877373.56, -0.00104668654967099, 0.0368199795484543, 0.0242047309875488, 32857, 33165, 23406, NaN
1470877374.56, 0.000265794631559402, 0.036723367869854, 0.0241271927952766, 32853, 33171, 23422, NaN
1470877375.56, 0.00199942314065993, 0.036319438368082, 0.0246876329183578, 32870, 33170, 23412, NaN
1470877376.56, 0.00419310014694929, 0.0374026708304882, 0.0248450599610806, 32863, 33180, 23416, NaN
1470877377.56, 0.00868412014096975, 0.0379125066101551, 0.0244725178927183, 32863, 33180, 23408, NaN
1470877378.568, 0.0161500759422779, 0.0376753136515617, 0.0244925655424595, 32853, 33174, 23417, NaN
1470877378.568, 0.0279564503580332, 0.0377692990005016, 0.0238436590880156, 32856, 33156, 23413, NaN
1470877379.576, 0.0452031567692757, 0.0375947840511799, 0.0240776035934687, 32865, 33160, 23404, NaN
1470877380.576, 0.0666790083050728, 0.0385350957512856, 0.0235938858240843, 32859, 33177, 23402, NaN
1470877381.576, 0.091401182115078, 0.0383894965052605, 0.0238177459686995, 32864, 33173, 23427, NaN
1470877382.576, 0.11647567152977, 0.0387351177632809, 0.0233586542308331, 32853, 33165, 23427, NaN
1470877383.576, 0.140812620520592, 0.0372735261917114, 0.0230894666165113, 32850, 33169, 23423, NaN
1470877384.576, 0.163225695490837, 0.0363654084503651, 0.0236054174602032, 32862, 33175, 23411, NaN
1470877385.576, 0.140016615390778, 0.0363273248076439, 0.023473447188735, 32847, 33167, 23423, NaN
1470877386.576, 0.0870939195156097, 0.036079678684473, 0.023850716650486, 32856, 33165, 23422, NaN
1470877387.576, 0.0422700792551041, 0.0360273867845535, 0.0236104372888803, 32855, 33180, 23418, NaN
1470877388.576, 0.00488219736143947, 0.0356650352478027, 0.0235791187733412, 32856, 33169, 23424, NaN
1470877389.584, -0.0257207509130239, 0.0362198427319527, 0.0232803709805012, 32852, 33168, 23407, NaN
1470877390.584, -0.0501748509705067, 0.0370304882526398, 0.0226321797817945, 32857, 33167, 23420, NaN
1470877391.584, -0.0690981447696686, 0.0373909063637257, 0.023136992007494, 32852, 33167, 23431, NaN
1470877392.584, -0.0830876231193542, 0.0377597846090794, 0.0223807524889708, 32860, 33162, 23421, NaN
1470877392.584, -0.0927164033055305, 0.0384378880262375, 0.0223582368344069, 32856, 33164, 23417, NaN
1470877393.588, -0.098531186580658, 0.0385572537779808, 0.023168908432126, 32856, 33166, 23417, NaN
1470877394.588, -0.101050063967705, 0.0386251769959927, 0.0233436524868011, 32852, 33161, 23416, NaN
1470877395.588, -0.100760579109192, 0.0382765159010887, 0.0229102279990911, 32857, 33160, 23423, NaN
1470877396.588, -0.0981183350086212, 0.0376114472746849, 0.0227917935699224, 32860, 33171, 23405, NaN
1470877397.588, -0.0935458615422249, 0.0380333103239536, 0.0228826813399792, 32860, 33165, 23409, NaN
1470877398.588, -0.0874319151043892, 0.0373444110155106, 0.0234306640923023, 32858, 33173, 23404, NaN
1470877399.598, -0.0801312327384949, 0.0384123437106609, 0.0237475167959929, 32858, 33159, 23420, NaN
1470877400.598, -0.0719645246863365, 0.0379914827644825, 0.0239816978573799, 32866, 33173, 23411, NaN
1470877401.598, -0.063218928873539, 0.038049191236496, 0.0242930762469769, 32843, 33167, 23418, NaN
1470877401.598, -0.0541487261652946, 0.0378795117139816, 0.025074141100049, 32856, 33160, 23411, NaN
1470877402.604, -0.0449763089418411, 0.037873562425375, 0.0255238618701696, 32846, 33165, 23411, NaN
1470877403.604, -0.0358934812247753, 0.0379310846328735, 0.0264751631766558, 32852, 33170, 23415, NaN
1470877404.604, -0.0270628798753023, 0.0381996817886829, 0.0269078854471445, 32857, 33170, 23418, NaN
1470877405.604, -0.0186196509748697, 0.0384437330067158, 0.0271246433258057, 32850, 33171, 23423, NaN
1470877405.604, -0.0106732156127691, 0.0377198457717896, 0.0266146827489138, 32850, 33170, 23430, NaN
1470877406.606, -0.00330915930680931, 0.0377273820340633, 0.0265704002231359, 32860, 33168, 23415, NaN
1470877407.606, 0.00445889635011554, 0.0367789193987846, 0.0275214910507202, 32862, 33173, 23424, NaN
1470877408.606, 0.0173725541681051, 0.0367203913629055, 0.0272153951227665, 32857, 33176, 23404, NaN
1470877409.616, 0.0345799662172794, 0.0368892513215542, 0.0270525217056274, 32855, 33165, 23424, NaN
1470877409.616, 0.0546015501022339, 0.0363481603562832, 0.0275255832821131, 32856, 33170, 23419, NaN
1470877410.624, 0.0758189782500267, 0.0368689335882664, 0.0271951388567686, 32861, 33177, 23420, NaN
1470877411.624, 0.0951593667268753, 0.0370865501463413, 0.0272674355655909, 32871, 33176, 23403, NaN
1470877412.624, 0.112219035625458, 0.0377477817237377, 0.0268689170479774, 32849, 33172, 23432, NaN
1470877413.624, 0.126708418130875, 0.0373590774834156, 0.0273483153432608, 32852, 33176, 23413, NaN
1470877413.628, 0.138719409704208, 0.0376856438815594, 0.0275812260806561, 32867, 33174, 23415, NaN